Theta_e
352 357 361 361 361 361 360 359 360 361 361 360 361 361 361 361 361 363 362 362 362 362 362 362 363 363 363 363 362 362 361 362 362 361 362 361 361 361 361 360 360 357 362
354 357 359 361 362 362 361 361 360 360 361 360 359 360 360 360 360 361 361 361 360 360 360 360 361 361 362 362 363 362 362 361 362 362 361 360 362 361 361 360 359 359 361
354 357 359 362 361 362 362 361 360 359 360 359 359 358 359 360 360 360 360 360 360 359 359 359 359 358 357 356 356 358 360 360 360 361 360 358 357 361 361 360 361 361 360
354 357 357 362 363 361 361 361 361 360 359 358 358 357 357 359 359 357 357 356 356 356 356 356 356 356 356 357 358 357 355 355 356 357 357 356 356 360 362 360 360 361 360
352 354 359 363 361 360 360 360 360 360 359 358 358 359 359 357 356 356 356 356 357 357 357 356 357 357 357 357 355 355 355 354 353 355 359 360 358 358 359 359 360 361 361
350 351 358 362 362 361 361 361 360 360 359 359 358 357 356 357 357 356 355 355 356 356 357 358 359 360 359 357 356 355 354 355 356 354 358 358 358 356 359 361 359 358 360
349 349 355 362 361 362 363 361 361 361 360 359 358 358 358 359 358 358 360 360 360 360 359 359 358 358 358 359 360 361 361 358 354 353 353 353 354 354 359 360 362 361 361
347 348 354 361 362 360 360 361 361 361 361 360 360 360 360 360 360 360 360 360 359 359 359 359 359 360 360 361 361 362 362 363 357 356 356 355 358 355 358 361 361 360 362
347 348 352 357 360 361 360 360 360 360 360 361 360 360 360 360 360 359 359 359 359 359 360 361 361 362 362 363 363 363 363 363 361 359 358 356 361 358 359 361 360 360 363
348 348 351 358 357 360 360 360 359 359 361 361 360 360 359 359 358 358 361 362 360 360 361 363 363 364 366 365 365 365 365 365 362 362 358 360 358 357 359 362 360 361 361
348 349 350 355 359 360 361 359 360 361 361 361 360 359 358 356 357 359 359 361 363 365 366 365 366 369 370 367 366 366 366 365 361 358 357 359 357 358 359 360 359 358 358
342 344 348 355 355 359 357 360 361 359 358 359 357 359 357 360 363 361 362 364 365 366 368 369 371 371 369 362 363 364 361 361 357 356 355 356 357 358 358 361 362 360 354
344 345 348 354 357 357 357 358 358 358 357 356 359 359 361 360 362 362 362 364 366 365 366 366 366 364 364 363 363 362 362 361 358 354 351 352 354 357 359 361 362 359 352
346 346 347 353 356 357 357 357 356 355 354 353 354 360 360 359 360 361 361 362 364 364 365 365 365 366 366 366 365 364 362 361 360 358 356 351 352 353 355 360 359 359 355
346 346 348 353 356 357 358 356 355 353 352 352 353 357 358 358 361 364 364 361 363 365 365 365 365 365 366 366 365 364 361 361 360 358 358 355 353 354 355 357 359 360 358
346 345 348 351 354 356 356 358 354 355 355 353 354 356 361 361 363 364 365 364 364 365 362 362 363 363 361 364 363 363 363 361 360 361 359 358 353 354 355 357 359 360 358
347 347 346 349 352 354 355 356 355 356 356 357 357 360 362 363 363 366 365 364 363 359 360 356 362 362 360 363 363 361 360 361 358 359 360 360 360 354 355 356 358 357 354
349 348 348 347 350 353 355 356 355 356 358 361 361 363 364 365 367 366 365 364 364 357 357 360 359 358 359 360 360 360 361 361 360 361 361 361 361 359 355 353 351 348 348
349 350 350 351 352 354 356 357 358 360 364 363 363 360 363 363 364 366 366 367 365 359 361 363 362 360 359 361 357 359 361 360 360 358 360 361 360 358 353 343 345 346 347
348 350 351 351 354 357 357 358 358 360 362 363 363 365 367 365 364 365 366 367 366 362 362 361 363 362 362 359 357 354 358 357 358 359 359 361 357 352 347 346 347 349 346
346 347 350 351 356 356 355 354 356 356 358 359 363 366 364 366 366 366 363 363 366 363 365 366 365 363 361 362 355 350 353 354 353 355 359 359 354 350 346 346 348 348 347
344 347 349 351 355 356 356 357 358 357 357 358 362 366 367 366 367 365 366 365 365 361 371 370 368 366 359 362 353 349 342 347 351 354 356 354 353 351 347 347 348 348 347
343 346 349 352 355 357 359 357 357 358 360 358 360 361 365 365 366 367 367 365 366 365 361 371 365 364 354 361 361 352 341 337 346 354 352 350 351 344 343 345 346 347 348
342 346 350 353 354 356 360 357 359 351 349 353 359 362 364 366 365 365 367 367 368 364 365 364 365 370 362 362 359 360 359 355 344 342 351 345 340 341 339 344 345 344 346
343 345 348 352 354 357 357 359 355 355 355 356 358 363 366 367 367 365 368 367 367 364 366 367 370 375 364 360 361 355 358 356 352 343 339 344 345 343 339 341 344 344 342
342 345 347 351 354 356 356 357 357 357 358 356 358 356 357 359 360 364 367 366 367 367 366 366 371 371 367 363 361 359 356 351 350 347 341 339 340 340 340 340 340 338 335
Wind_Speed
4 6 11 12 13 15 15 14 14 13 13 12 11 11 11 11 11 11 10 10 9 10 10 11 11 11 11 12 10 10 9 9 9 10 11 9 10 10 8 8 8 8 11
10 9 10 13 13 13 14 12 12 11 11 11 10 10 9 9 9 9 8 8 8 9 8 8 9 9 10 10 10 9 8 8 8 9 10 9 9 9 8 8 7 11 10
11 10 12 11 13 13 13 12 11 11 9 10 8 8 8 8 7 7 6 6 6 6 6 6 6 7 8 8 8 7 7 7 5 7 7 4 6 8 8 9 8 10 11
11 10 12 11 12 12 12 11 10 10 9 9 7 6 6 5 5 3 4 4 4 4 5 5 6 6 6 5 6 6 6 5 3 4 3 2 2 7 8 8 7 8 9
11 10 11 11 12 11 10 10 9 9 9 8 6 5 4 3 2 2 2 3 3 4 5 5 6 6 6 5 5 4 3 3 3 3 1 2 2 6 6 7 8 8 9
12 10 11 9 11 11 10 9 8 8 7 6 5 3 2 1 1 2 2 3 4 5 5 6 6 6 6 5 5 5 4 4 5 3 2 2 4 3 6 8 8 8 9
12 10 11 8 9 7 9 8 8 8 7 6 5 3 3 2 3 4 5 4 5 6 7 7 6 6 6 7 6 5 4 5 6 5 4 5 5 5 9 10 10 11 11
12 10 8 7 9 8 7 8 7 6 6 6 5 4 3 4 5 6 7 7 7 8 8 8 8 8 8 8 8 7 6 6 7 6 7 6 3 8 12 14 12 12 12
10 8 8 7 7 8 8 6 5 5 5 5 5 4 5 6 6 7 8 9 9 9 10 10 10 10 11 10 10 10 10 9 9 5 7 6 0 6 11 15 14 13 13
9 8 7 6 7 6 7 6 6 6 6 5 5 6 7 7 8 9 10 8 10 11 12 12 12 11 11 11 11 11 11 12 7 8 5 6 8 9 9 12 13 13 14
9 9 8 7 7 6 5 5 7 8 6 6 7 7 7 5 6 8 9 12 13 13 13 13 13 12 12 12 12 11 12 5 5 4 5 4 8 11 9 10 10 12 12
12 12 9 9 8 6 5 5 5 5 5 4 5 6 5 6 6 8 10 13 14 14 14 12 11 11 12 6 5 7 5 7 6 6 4 10 12 11 10 12 11 9 13
11 9 11 9 7 7 6 4 4 3 4 4 6 6 5 5 5 5 5 5 5 7 6 6 7 6 6 6 6 7 7 7 5 6 7 11 11 13 12 13 11 13 15
12 11 11 10 8 8 5 5 4 4 4 4 5 5 4 4 5 5 4 5 5 4 6 6 4 6 8 7 7 8 7 6 5 6 7 12 12 13 13 13 12 15 12
11 12 11 10 10 8 8 5 5 5 5 5 5 5 5 5 6 5 4 4 5 5 4 5 5 5 6 6 6 7 8 7 8 5 5 7 13 15 16 14 15 15 13
11 11 10 11 11 9 8 8 6 5 5 6 5 5 6 5 5 5 4 4 4 4 5 5 5 5 6 6 6 7 7 7 7 7 5 5 7 12 12 12 13 15 12
11 10 11 11 10 11 10 8 6 5 5 5 6 8 7 7 6 6 5 4 4 4 5 4 6 4 6 4 6 7 6 7 7 7 6 5 4 4 6 7 7 7 6
11 11 11 10 10 11 10 7 6 6 5 5 4 5 6 6 6 5 5 4 3 3 3 4 4 4 5 5 6 7 7 6 7 7 6 5 4 4 3 6 7 8 9
14 12 11 11 11 11 9 7 7 7 5 4 4 4 4 6 6 5 4 4 3 3 3 4 4 4 6 7 7 7 8 8 6 6 6 3 3 3 2 3 9 10 11
13 13 12 11 12 9 6 6 6 5 6 5 5 5 5 5 5 5 4 4 4 4 4 4 4 5 6 6 6 9 8 7 5 4 4 2 2 2 3 6 6 5 8
13 13 13 13 12 8 6 6 6 7 6 6 6 6 4 5 5 5 5 5 4 4 4 4 4 6 6 4 6 9 7 5 4 6 4 3 2 2 4 5 4 4 4
14 14 14 14 13 11 8 6 5 5 6 6 4 4 4 3 4 5 5 5 4 4 6 3 3 4 4 3 4 7 6 4 2 5 3 3 4 4 5 6 6 5 5
15 16 15 15 14 12 11 6 5 4 4 5 5 3 2 1 2 4 5 5 5 5 6 5 5 4 5 3 3 3 5 6 11 3 4 4 5 4 5 5 5 5 5
17 14 14 14 14 12 12 9 10 8 8 6 4 3 3 2 4 5 7 6 6 5 6 5 5 3 4 5 4 1 3 4 5 6 2 3 3 4 4 4 4 5 6
13 13 13 13 13 12 12 11 9 10 6 6 4 5 4 4 4 6 6 6 7 5 5 7 7 5 3 5 4 4 4 3 5 3 5 4 1 4 3 3 3 4 6
11 12 12 14 12 13 13 13 13 11 9 6 6 6 6 5 5 6 6 5 6 6 7 7 6 6 4 5 4 4 5 6 6 2 3 2 4 2 3 3 4 5 4
Wind_Direction
139 126 123 124 125 132 136 133 126 118 116 113 113 110 108 102 99 96 91 87 85 82 80 80 84 86 88 91 98 101 101 95 102 104 109 108 115 125 125 122 137 130 127
138 129 130 131 128 132 135 133 128 128 123 122 119 114 105 101 96 87 87 87 83 77 72 75 80 83 83 83 86 87 92 99 104 105 103 110 123 129 140 143 160 118 139
137 130 137 129 132 133 130 136 140 139 133 131 126 119 106 92 90 85 84 79 71 70 68 63 63 69 71 70 65 67 78 83 83 107 107 106 131 146 157 156 161 147 148
138 135 136 140 127 131 131 137 142 144 141 134 135 129 107 96 96 92 79 58 45 34 26 21 20 21 31 42 49 42 36 45 84 117 120 99 91 165 164 162 163 159 165
146 142 127 131 140 139 140 145 146 142 144 147 146 127 112 97 77 40 6 9 356 353 349 345 351 355 354 0 18 22 9 358 347 251 342 158 161 145 183 178 178 177 180
149 149 135 138 143 148 152 156 155 155 156 159 158 149 159 161 349 329 327 323 323 320 315 324 331 328 331 336 339 338 336 319 297 292 302 168 238 144 209 197 201 193 190
155 155 153 166 151 158 155 165 170 170 173 178 183 186 222 251 276 288 297 306 308 309 309 309 310 309 312 313 313 314 299 295 290 278 267 262 237 218 227 217 211 205 193
157 161 156 176 156 171 181 173 185 182 185 195 209 217 238 258 277 291 295 297 301 300 298 300 302 306 304 303 304 299 295 291 264 270 266 260 218 238 245 213 210 213 210
164 169 172 181 176 190 183 185 195 203 208 214 227 237 254 269 279 285 288 292 294 297 298 299 300 301 299 301 300 299 299 295 289 290 275 272 109 267 250 211 205 211 215
175 180 188 192 193 209 179 193 199 212 225 236 245 256 267 285 289 287 298 271 295 295 294 294 295 294 290 289 291 292 297 295 289 282 290 273 282 282 265 220 208 212 215
187 193 201 202 199 199 207 204 218 235 247 254 253 264 276 282 293 296 303 295 295 292 288 287 287 288 289 282 284 292 299 286 293 287 281 273 261 260 265 261 233 232 236
193 199 203 209 207 202 217 223 239 245 261 274 276 281 279 288 293 300 291 291 293 289 289 279 270 275 274 291 298 278 285 290 287 287 290 279 273 270 260 250 232 219 256
198 202 207 206 213 216 219 226 238 244 250 261 261 263 278 291 298 293 292 293 298 284 285 289 283 280 280 291 292 288 284 281 278 273 268 262 268 270 263 252 232 205 236
203 209 206 207 211 222 225 229 244 248 251 251 262 270 270 277 285 287 290 306 299 308 297 293 306 295 286 286 285 279 277 267 269 275 264 250 250 252 252 246 247 209 225
204 211 212 204 211 218 219 233 246 254 247 255 254 255 261 274 281 287 302 295 302 303 295 295 301 314 306 291 281 277 286 277 271 271 282 263 256 254 253 252 246 229 209
208 209 206 211 210 214 221 225 232 245 251 249 260 257 249 264 268 287 285 299 303 304 306 302 311 314 322 302 288 293 303 293 297 299 298 293 256 258 263 261 258 247 227
208 208 207 209 211 212 216 227 235 243 252 260 260 260 260 256 267 275 286 292 312 315 289 289 291 288 301 306 300 309 306 301 297 310 308 312 311 255 281 297 289 329 267
211 207 209 206 208 215 220 221 234 246 254 251 252 251 251 255 254 260 276 293 339 319 308 310 313 305 310 328 322 315 310 299 303 306 309 322 339 345 84 46 32 10 341
210 206 210 209 215 214 221 237 243 259 249 251 258 256 246 259 261 261 268 292 304 310 301 303 305 302 319 327 319 320 312 307 313 319 325 349 36 50 32 69 4 10 354
212 212 212 211 216 213 218 230 239 238 253 253 254 259 262 258 254 252 259 276 290 299 301 299 299 299 306 320 317 317 310 308 326 333 350 2 85 80 3 8 351 8 11
209 209 212 208 209 201 199 210 223 232 237 246 248 259 266 265 246 240 257 265 277 270 301 293 297 302 314 334 308 331 312 303 298 337 336 351 9 328 356 5 341 0 17
215 211 208 212 202 203 202 205 221 233 244 250 258 269 273 235 204 209 234 264 270 280 274 301 305 312 311 353 332 317 328 340 244 350 11 4 332 327 349 354 2 11 352
218 213 208 203 202 202 203 201 212 224 240 235 238 263 10 329 254 253 265 268 265 262 278 302 297 318 324 314 293 325 322 339 334 85 54 17 354 354 354 3 16 4 356
222 213 210 204 199 197 193 209 218 229 231 229 235 256 280 291 282 270 269 269 258 269 275 263 275 308 279 312 325 298 265 297 327 325 74 18 21 30 358 23 18 4 3
220 210 206 201 199 194 194 208 215 234 242 245 241 259 268 280 271 309 301 269 252 256 262 274 275 294 273 294 327 324 305 282 250 273 308 336 17 45 37 13 17 11 8
212 208 204 200 199 196 199 203 211 222 231 242 246 260 267 270 274 273 294 270 265 272 269 271 280 298 289 281 308 291 299 318 319 278 265 276 325 50 51 33 2 29 350